Location: Écuvilly
(49.6505°N, 2.9206°E)
Time: 16:59:49
(UTC+00:00)

SKYMED 2 - Pass Details

Date: 17 November 2025
Orbit: 621 x 623 km, 97.9° (Epoch: 13 December)

Event Time Altitude Azimuth Distance (km) Brightness Sun altitude
Exits shadow 17:45:02 12° 23° (NNE) 1,886 5.7 -16.3°
Maximum altitude 17:49:01 55° 100° (E) 754 3.6 -17.0°
Drops below altitude 10° 17:53:16 10° 179° (S) 1,987 6.2 -17.7°
Sets 17:55:29 0° 184° (S) 2,888 7.2 -18.0°
